Flag for Faroe Islands Weather past 2 weeks in Tórshavn, Faroe Islands, Faroe Islands

Now
45 °F

Passing clouds.


Feels Like: 40 °F
Forecast: 43 / 48 °F
Wind: 8 mph from Southwest

Location: Soervaag / Vagar

Current Time: Apr 21, 2015 at 4:56:34 AM

Latest Report: Apr 21, 2015 at 4:20 AM


Visibility: N/A

Pressure: 30.27 "Hg

Humidity: 93%

Dew point: 43 °F

Location of TórshavnLocation

Historic Weather in Tórshavn — Graph

°F

Tórshavn temperature yesterday

Maximum temperature yesterday: 46 °F (at 3:20 PM)
Minimum temperature yesterday: 41 °F (at 2:50 AM)
Average temperature yesterday: 43 °F

Past Weeks' High & Low Weather Summary

 TemperatureHumidityPressure
High48 °F (Apr 17, 12:20 PM)100% (Apr 6, 3:20 AM)30.54 "Hg (Apr 6, 3:20 AM)
Low28 °F (Apr 13, 12:20 AM)53% (Apr 7, 2:50 PM)29.21 "Hg (Apr 11, 6:50 AM)
Average43 °F81%29.95 "Hg
* Reported Apr 6 3:20 AM — Apr 21 3:20 AM, Tórshavn, Weather by CustomWeather, © 2015

Note: Actual official high and low records may vary slightly from our data, if they occured in-between our weather recording intervals... More about our weather records

Advertising

Tórshavn weather history for previous 24 hours

 ConditionsComfort  
Time TempWeatherWind HumidityBarometerVisibility
3:20 AM
Tue, Apr 21
45 °FPassing clouds.7 mph93%30.30 "HgN/A
2:50 AM45 °FPassing clouds.7 mph93%30.30 "HgN/A
2:20 AM45 °FPassing clouds.7 mph93%30.30 "HgN/A
1:50 AM45 °FPassing clouds.6 mph87%30.27 "HgN/A
1:20 AM45 °FPassing clouds.9 mph87%30.30 "HgN/A
12:50 AM45 °FOvercast.9 mph81%30.30 "HgN/A
12:20 AM45 °FOvercast.12 mph81%30.30 "HgN/A
11:50 PM
Mon, Apr 20
45 °FOvercast.13 mph81%30.30 "HgN/A
11:20 PM45 °FPassing clouds.9 mph87%30.30 "HgN/A
10:50 PM46 °FOvercast.9 mph87%30.30 "HgN/A
10:20 PM46 °FPassing clouds.9 mph82%30.30 "HgN/A
9:50 PM46 °FSprinkles. Low clouds.10 mph87%30.30 "HgN/A
9:20 PM45 °FLow clouds.12 mph93%30.33 "HgN/A
8:50 PM45 °FLow clouds.9 mph93%30.33 "HgN/A
8:20 PM45 °FLow clouds.9 mph87%30.33 "HgN/A
7:50 PM45 °FLow clouds.9 mph87%30.33 "HgN/A
7:20 PM45 °FLow clouds.8 mph87%30.33 "HgN/A
6:50 PM45 °FOvercast.13 mph87%30.36 "HgN/A
6:20 PM45 °FPartly sunny.12 mph81%30.36 "HgN/A
5:50 PM45 °FPartly sunny.12 mph81%30.36 "HgN/A
5:20 PM45 °FPartly sunny.13 mph81%30.36 "HgN/A
4:50 PM45 °FPartly sunny.10 mph81%30.36 "HgN/A
4:20 PM45 °FPartly sunny.10 mph87%30.36 "HgN/A
3:50 PM45 °FOvercast.12 mph87%30.39 "HgN/A
3:20 PM46 °FPartly sunny.10 mph82%30.39 "HgN/A
2:50 PM45 °FOvercast.13 mph87%30.39 "HgN/A
2:20 PM45 °FPartly sunny.9 mph87%30.42 "HgN/A
1:50 PM45 °FPartly sunny.12 mph81%30.42 "HgN/A
1:20 PM45 °FPartly sunny.12 mph87%30.42 "HgN/A
12:50 PM45 °FPartly sunny.12 mph81%30.45 "HgN/A
12:20 PM43 °FPartly sunny.12 mph87%30.45 "HgN/A
11:50 AM43 °FPartly sunny.12 mph87%30.45 "HgN/A
11:20 AM43 °FPartly sunny.10 mph87%30.45 "HgN/A
10:50 AM43 °FPartly sunny.9 mph87%30.45 "HgN/A
10:20 AM43 °FPartly sunny.10 mph81%30.45 "HgN/A
9:50 AM43 °FPartly sunny.8 mph81%30.45 "HgN/A
9:20 AM43 °FPartly sunny.6 mph81%30.45 "HgN/A
8:50 AM43 °FPartly sunny.5 mph81%30.45 "HgN/A
8:20 AM43 °FOvercast.5 mph87%30.45 "HgN/A
7:50 AM41 °FLow clouds.7 mph87%30.45 "HgN/A
7:20 AM41 °FLow clouds.8 mph87%30.45 "HgN/A
6:50 AM41 °FLow clouds.8 mph93%30.45 "HgN/A
6:20 AM41 °FLow clouds.7 mph93%30.45 "HgN/A
5:50 AM41 °FOvercast.8 mph87%30.45 "HgN/A
5:20 AM41 °FOvercast.5 mph87%30.45 "HgN/A
4:50 AM41 °FOvercast.8 mph87%30.45 "HgN/A
4:20 AM43 °FOvercast.3 mph81%30.45 "HgN/A
Weather by CustomWeather, © 2015

See weather overviewHow to use our weather pages